Location: São Paulo
(23.5507°S, 46.6334°W)
Time: 03:43:04
(UTC-03:00)

Transit 2A Rocket - Visible Passes

Search period start: 18 February 2026 00:00
Search period end: 28 February 2026 00:00
Orbit: 582 x 901 km, 66.7° (Epoch: 17 February)

Date Brightness Start Highest point End Pass type
(mag) Time Alt. Az. Time Alt. Az. Time Alt. Az.
18 Feb 7.1 03:16:24 17° SSE 03:16:24 17° SSE 03:17:29 10° SSE visible
19 Feb 6.9 04:12:05 11° SSW 04:12:05 11° SSW 04:12:30 10° SSW visible
20 Feb 7.3 03:27:59 11° S 03:27:59 11° S 03:28:09 10° S visible
